User: anonymous   Login
Location: Newark
(34.9471°N, 136.1778°E)
Time: 14:33:55
(UTC+00:00)
Language:

XW-2C - Orbit

View from above orbital plane
View from above orbital plane
View from above satellite
View from above satellite

Ground track
Ground track

The orbit data is extracted from the following two-line orbital elements,

1 40906U 15049H   20049.11398646  .00000476  00000-0  28237-4 0  9994
2 40906  97.4754  52.2630 0016351  72.7751 355.5410 15.15930748244028
Epoch (UTC): 18 February 2020 02:44:08
Eccentricity: 0.0016351
inclination: 97.4754°
perigee height: 507 km
apogee height: 529 km
right ascension of ascending node: 52.2630°
argument of perigee: 72.7751°
revolutions per day: 15.15930748
mean anomaly at epoch: 355.5410°
orbit number at epoch: 24402

The dashed part of the orbit path shows where the satellite is in the earth's shadow,  

DLR